Time,TemperatureF,DewpointF,PressureIn,WindDirection,WindDirectionDegrees,WindSpeedMPH,WindSpeedGustMPH,Humidity,HourlyPrecipIn,Conditions,Clouds,dailyrainin,SoftwareType,DateUTC
2013-02-20 00:00:00,40.1,17.7,29.99,West,281,2.0,9.0,40,0.00,RA,,0.00,WeatherDisplay:10.37,2013-02-20 05:00:00,
2013-02-20 00:10:00,40.1,15.9,29.99,West,280,5.0,14.0,37,0.00,CLR,,0.00,WeatherDisplay:10.37,2013-02-20 05:10:00,
2013-02-20 00:20:00,40.3,15.4,29.99,WNW,285,2.0,12.0,36,0.00,CLR,,0.00,WeatherDisplay:10.37,2013-02-20 05:20:00,
2013-02-20 00:30:00,40.2,16.0,29.99,WNW,286,1.0,9.0,37,0.00,CLR,,0.00,WeatherDisplay:10.37,2013-02-20 05:30:00,
2013-02-20 00:40:00,39.9,16.3,30.00,WNW,287,0.0,9.0,38,0.00,CLR,,0.00,WeatherDisplay:10.37,2013-02-20 05:40:00,
2013-02-20 00:50:00,39.5,16.0,30.00,WNW,286,1.0,8.0,38,0.00,CLR,,0.00,WeatherDisplay:10.37,2013-02-20 05:50:00,
2013-02-20 01:00:00,39.3,15.8,30.00,WNW,285,3.0,9.0,38,0.00,CLR,,0.00,WeatherDisplay:10.37,2013-02-20 06:00:00,
2013-02-20 01:10:00,39.3,15.2,30.01,WNW,283,3.0,10.0,37,0.00,CLR,,0.00,WeatherDisplay:10.37,2013-02-20 06:10:00,
2013-02-20 01:20:00,39.2,15.7,30.02,West,279,1.0,7.0,38,0.00,CLR,,0.00,WeatherDisplay:10.37,2013-02-20 06:20:00,
2013-02-20 01:30:00,39.1,15.6,30.02,West,269,0.0,7.0,38,0.00,CLR,,0.00,WeatherDisplay:10.37,2013-02-20 06:30:00,
2013-02-20 01:40:00,38.8,15.9,30.02,West,266,0.0,7.0,39,0.00,CLR,,0.00,WeatherDisplay:10.37,2013-02-20 06:40:00,
2013-02-20 01:50:00,38.5,15.7,30.03,West,266,2.0,6.0,39,0.00,CLR,,0.00,WeatherDisplay:10.37,2013-02-20 06:50:00,
2013-02-20 02:00:00,38.0,14.6,30.03,West,275,2.0,16.0,38,0.00,CLR,,0.00,WeatherDisplay:10.37,2013-02-20 07:00:00,
2013-02-20 02:10:00,38.2,14.8,30.03,West,274,3.0,10.0,38,0.00,CLR,,0.00,WeatherDisplay:10.37,2013-02-20 07:10:00,
2013-02-20 02:20:00,38.2,14.8,30.02,West,277,5.0,10.0,38,0.00,CLR,,0.00,WeatherDisplay:10.37,2013-02-20 07:20:00,
2013-02-20 02:30:00,38.2,14.8,30.02,West,267,2.0,10.0,38,0.00,CLR,,0.00,WeatherDisplay:10.37,2013-02-20 07:30:00,
2013-02-20 02:40:00,37.8,15.1,30.02,West,261,3.0,7.0,39,0.00,CLR,,0.00,WeatherDisplay:10.37,2013-02-20 07:40:00,
2013-02-20 02:50:00,37.5,15.3,30.02,West,260,2.0,4.0,40,0.00,CLR,,0.00,WeatherDisplay:10.37,2013-02-20 07:50:00,
2013-02-20 03:00:00,37.0,15.5,30.02,West,263,0.0,5.0,41,0.00,CLR,,0.00,WeatherDisplay:10.37,2013-02-20 08:00:00,
2013-02-20 03:10:00,36.6,15.1,30.02,West,263,0.0,3.0,41,0.00,CLR,,0.00,WeatherDisplay:10.37,2013-02-20 08:10:00,
2013-02-20 03:20:00,36.0,15.1,30.02,West,263,0.0,4.0,42,0.00,CLR,,0.00,WeatherDisplay:10.37,2013-02-20 08:20:00,
2013-02-20 03:30:00,35.8,14.9,30.02,West,263,1.0,4.0,42,0.00,CLR,,0.00,WeatherDisplay:10.37,2013-02-20 08:30:00,
2013-02-20 03:40:00,35.5,14.6,30.02,West,263,2.0,6.0,42,0.00,CLR,,0.00,WeatherDisplay:10.37,2013-02-20 08:40:00,
2013-02-20 03:50:00,35.3,15.0,30.02,West,264,2.0,5.0,43,0.00,CLR,,0.00,WeatherDisplay:10.37,2013-02-20 08:50:00,
2013-02-20 04:00:00,35.0,15.3,30.02,West,263,3.0,6.0,44,0.00,CLR,,0.00,WeatherDisplay:10.37,2013-02-20 09:00:00,
2013-02-20 04:10:00,34.9,15.7,30.03,West,263,3.0,5.0,45,0.00,CLR,,0.00,WeatherDisplay:10.37,2013-02-20 09:10:00,
2013-02-20 04:20:00,34.7,15.0,30.03,West,261,3.0,6.0,44,0.00,CLR,,0.00,WeatherDisplay:10.37,2013-02-20 09:20:00,
2013-02-20 04:30:00,34.5,14.8,30.03,West,261,3.0,5.0,44,0.00,CLR,,0.00,WeatherDisplay:10.37,2013-02-20 09:30:00,
2013-02-20 04:40:00,34.3,15.1,30.02,West,261,0.0,4.0,45,0.00,CLR,,0.00,WeatherDisplay:10.37,2013-02-20 09:40:00,
2013-02-20 04:50:00,34.0,15.3,30.03,West,261,0.0,0.0,46,0.00,CLR,,0.00,WeatherDisplay:10.37,2013-02-20 09:50:00,
2013-02-20 05:00:00,33.5,15.9,30.03,West,261,0.0,0.0,48,0.00,CLR,,0.00,WeatherDisplay:10.37,2013-02-20 10:00:00,
2013-02-20 05:10:00,33.2,16.1,30.03,West,261,0.0,0.0,49,0.00,CLR,,0.00,WeatherDisplay:10.37,2013-02-20 10:10:00,
2013-02-20 05:20:00,32.9,16.3,30.04,West,261,0.0,0.0,50,0.00,CLR,,0.00,WeatherDisplay:10.37,2013-02-20 10:20:00,
2013-02-20 05:30:00,32.5,16.4,30.04,West,261,0.0,0.0,51,0.00,CLR,,0.00,WeatherDisplay:10.37,2013-02-20 10:30:00,
2013-02-20 05:40:00,32.1,16.0,30.05,West,261,0.0,0.0,51,0.00,CLR,,0.00,WeatherDisplay:10.37,2013-02-20 10:40:00,
2013-02-20 05:50:00,31.8,16.2,30.06,West,261,0.0,3.0,52,0.00,CLR,,0.00,WeatherDisplay:10.37,2013-02-20 10:50:00,
2013-02-20 06:00:00,31.6,15.5,30.06,West,261,0.0,3.0,51,0.00,CLR,,0.00,WeatherDisplay:10.37,2013-02-20 11:00:00,
2013-02-20 06:10:00,31.6,16.4,30.05,West,261,0.0,0.0,53,0.00,CLR,,0.00,WeatherDisplay:10.37,2013-02-20 11:10:00,
2013-02-20 06:20:00,31.3,15.7,30.05,West,261,0.0,0.0,52,0.00,CLR,,0.00,WeatherDisplay:10.37,2013-02-20 11:20:00,
2013-02-20 06:30:00,31.2,16.0,30.05,West,261,0.0,0.0,53,0.00,CLR,,0.00,WeatherDisplay:10.37,2013-02-20 11:30:00,
2013-02-20 06:40:00,30.8,16.5,30.05,West,261,0.0,0.0,55,0.00,CLR,,0.00,WeatherDisplay:10.37,2013-02-20 11:40:00,
2013-02-20 06:50:00,30.3,17.3,30.06,West,261,0.0,0.0,58,0.00,CLR,,0.00,WeatherDisplay:10.37,2013-02-20 11:50:00,
2013-02-20 07:00:00,29.8,16.4,30.06,West,261,0.0,0.0,57,0.00,CLR,,0.00,WeatherDisplay:10.37,2013-02-20 12:00:00,
2013-02-20 07:10:00,29.3,16.7,30.06,West,261,0.0,0.0,59,0.00,CLR,,0.00,WeatherDisplay:10.37,2013-02-20 12:10:00,
2013-02-20 07:20:00,28.7,17.4,30.08,West,261,0.0,0.0,62,0.00,CLR,,0.00,WeatherDisplay:10.37,2013-02-20 12:20:00,
2013-02-20 07:30:00,28.5,17.9,30.08,West,261,0.0,0.0,64,0.00,CLR,,0.00,WeatherDisplay:10.37,2013-02-20 12:30:00,
2013-02-20 07:40:00,29.0,18.7,30.07,West,261,0.0,2.0,65,0.00,CLR,,0.00,WeatherDisplay:10.37,2013-02-20 12:40:00,
2013-02-20 07:50:00,31.2,17.7,30.08,West,261,2.0,4.0,57,0.00,CLR,,0.00,WeatherDisplay:10.37,2013-02-20 12:50:00,
2013-02-20 08:00:00,32.5,16.8,30.08,West,261,2.0,4.0,52,0.00,CLR,,0.00,WeatherDisplay:10.37,2013-02-20 13:00:00,
2013-02-20 08:10:00,33.3,15.7,30.08,West,261,3.0,5.0,48,0.00,CLR,,0.00,WeatherDisplay:10.37,2013-02-20 13:10:00,
2013-02-20 08:20:00,34.3,15.7,30.08,West,260,2.0,6.0,46,0.00,CLR,,0.00,WeatherDisplay:10.37,2013-02-20 13:20:00,
2013-02-20 08:30:00,35.3,13.9,30.08,West,260,6.0,10.0,41,0.00,CLR,,0.00,WeatherDisplay:10.37,2013-02-20 13:30:00,
2013-02-20 08:40:00,35.9,14.4,30.08,West,265,5.0,10.0,41,0.00,CLR,,0.00,WeatherDisplay:10.37,2013-02-20 13:40:00,
2013-02-20 08:50:00,36.8,15.3,30.08,West,270,2.0,7.0,41,0.00,CLR,,0.00,WeatherDisplay:10.37,2013-02-20 13:50:00,
2013-02-20 09:00:00,37.0,13.1,30.08,West,270,6.0,10.0,37,0.00,CLR,,0.00,WeatherDisplay:10.37,2013-02-20 14:00:00,
2013-02-20 09:10:00,37.5,14.2,30.08,WSW,258,5.0,11.0,38,0.00,CLR,,0.00,WeatherDisplay:10.37,2013-02-20 14:10:00,
2013-02-20 09:20:00,38.0,12.7,30.08,West,265,3.0,10.0,35,0.00,CLR,,0.00,WeatherDisplay:10.37,2013-02-20 14:20:00,
2013-02-20 09:30:00,38.2,13.0,30.08,WSW,257,3.0,13.0,35,0.00,CLR,,0.00,WeatherDisplay:10.37,2013-02-20 14:30:00,
2013-02-20 09:40:00,39.2,11.8,30.07,West,262,3.0,13.0,32,0.00,CLR,,0.00,WeatherDisplay:10.37,2013-02-20 14:40:00,
2013-02-20 09:50:00,39.8,10.8,30.07,West,278,6.0,12.0,30,0.00,CLR,,0.00,WeatherDisplay:10.37,2013-02-20 14:50:00,
2013-02-20 10:00:00,39.9,9.4,30.07,West,264,8.0,14.0,28,0.00,CLR,,0.00,WeatherDisplay:10.37,2013-02-20 15:00:00,
2013-02-20 10:10:00,41.1,11.9,30.07,West,262,5.0,13.0,30,0.00,CLR,,0.00,WeatherDisplay:10.37,2013-02-20 15:10:00,
2013-02-20 10:20:00,41.6,12.4,30.08,West,273,2.0,12.0,30,0.00,CLR,,0.00,WeatherDisplay:10.37,2013-02-20 15:20:00,
2013-02-20 10:30:00,41.3,10.6,30.08,West,261,3.0,15.0,28,0.00,CLR,,0.00,WeatherDisplay:10.37,2013-02-20 15:30:00,
2013-02-20 10:40:00,42.0,11.2,30.08,WSW,250,3.0,15.0,28,0.00,CLR,,0.00,WeatherDisplay:10.37,2013-02-20 15:40:00,
2013-02-20 10:50:00,42.9,11.1,30.09,West,277,3.0,17.0,27,0.00,CLR,,0.00,WeatherDisplay:10.37,2013-02-20 15:50:00,
2013-02-20 11:00:00,43.3,8.9,30.09,West,281,6.0,13.0,24,0.00,CLR,,0.00,WeatherDisplay:10.37,2013-02-20 16:00:00,
2013-02-20 11:10:00,43.3,7.9,30.09,West,276,8.0,18.0,23,0.00,CLR,,0.00,WeatherDisplay:10.37,2013-02-20 16:10:00,
2013-02-20 11:20:00,43.6,8.2,30.08,West,275,6.0,13.0,23,0.00,CLR,,0.00,WeatherDisplay:10.37,2013-02-20 16:20:00,
2013-02-20 11:30:00,44.9,8.3,30.08,West,266,5.0,15.0,22,0.00,CLR,,0.00,WeatherDisplay:10.37,2013-02-20 16:30:00,
2013-02-20 11:40:00,44.2,6.7,30.08,WSW,249,10.0,15.0,21,0.00,CLR,,0.00,WeatherDisplay:10.37,2013-02-20 16:40:00,
2013-02-20 11:50:00,45.7,7.9,30.08,West,273,3.0,16.0,21,0.00,CLR,,0.00,WeatherDisplay:10.37,2013-02-20 16:50:00,
2013-02-20 12:00:00,45.2,8.5,30.08,WSW,253,7.0,13.0,22,0.00,CLR,,0.00,WeatherDisplay:10.37,2013-02-20 17:00:00,
2013-02-20 12:10:00,45.4,7.7,30.08,WSW,256,5.0,18.0,21,0.00,CLR,,0.00,WeatherDisplay:10.37,2013-02-20 17:10:00,
2013-02-20 12:20:00,46.1,7.2,30.07,WSW,247,6.0,15.0,20,0.00,CLR,,0.00,WeatherDisplay:10.37,2013-02-20 17:20:00,
2013-02-20 12:30:00,46.2,7.2,30.07,West,270,5.0,16.0,20,0.00,CLR,,0.00,WeatherDisplay:10.37,2013-02-20 17:30:00,
2013-02-20 12:40:00,47.2,5.8,30.07,West,262,6.0,17.0,18,0.00,CLR,,0.00,WeatherDisplay:10.37,2013-02-20 17:40:00,
2013-02-20 12:50:00,47.6,4.9,30.05,West,264,7.0,16.0,17,0.00,CLR,,0.00,WeatherDisplay:10.37,2013-02-20 17:50:00,
2013-02-20 13:00:00,47.7,6.2,30.05,West,274,6.0,15.0,18,0.00,CLR,,0.00,WeatherDisplay:10.37,2013-02-20 18:00:00,
2013-02-20 13:10:00,48.8,7.1,30.04,West,274,7.0,14.0,18,0.00,CLR,,0.00,WeatherDisplay:10.37,2013-02-20 18:10:00,
2013-02-20 13:20:00,49.4,7.6,30.03,West,271,5.0,15.0,18,0.00,CLR,,0.00,WeatherDisplay:10.37,2013-02-20 18:20:00,
2013-02-20 13:30:00,49.6,6.5,30.03,West,260,5.0,10.0,17,0.00,CLR,,0.00,WeatherDisplay:10.37,2013-02-20 18:30:00,
2013-02-20 13:40:00,49.1,6.1,30.02,West,264,6.0,17.0,17,0.00,CLR,,0.00,WeatherDisplay:10.37,2013-02-20 18:40:00,
2013-02-20 13:50:00,50.5,8.5,30.03,West,260,6.0,12.0,18,0.00,CLR,,0.00,WeatherDisplay:10.37,2013-02-20 18:50:00,
2013-02-20 14:00:00,50.7,6.0,30.03,West,277,7.0,12.0,16,0.00,CLR,,0.00,WeatherDisplay:10.37,2013-02-20 19:00:00,
2013-02-20 14:10:00,50.7,4.6,30.02,West,266,8.0,17.0,15,0.00,CLR,,0.00,WeatherDisplay:10.37,2013-02-20 19:10:00,
2013-02-20 14:20:00,51.1,6.4,30.02,WNW,286,6.0,15.0,16,0.00,CLR,,0.00,WeatherDisplay:10.37,2013-02-20 19:20:00,
2013-02-20 14:30:00,52.2,5.9,30.02,West,267,6.0,12.0,15,0.00,CLR,,0.00,WeatherDisplay:10.37,2013-02-20 19:30:00,
2013-02-20 14:40:00,51.2,6.5,30.01,West,262,8.0,17.0,16,0.00,CLR,,0.00,WeatherDisplay:10.37,2013-02-20 19:40:00,
2013-02-20 14:50:00,51.7,5.4,30.01,WSW,255,2.0,10.0,15,0.00,CLR,,0.00,WeatherDisplay:10.37,2013-02-20 19:50:00,
2013-02-20 15:00:00,52.4,6.0,30.01,West,259,6.0,17.0,15,0.00,CLR,,0.00,WeatherDisplay:10.37,2013-02-20 20:00:00,
2013-02-20 15:10:00,51.9,5.7,30.00,WSW,254,9.0,15.0,15,0.00,CLR,,0.00,WeatherDisplay:10.37,2013-02-20 20:10:00,
2013-02-20 15:20:00,51.6,5.4,30.00,West,260,7.0,16.0,15,0.00,CLR,,0.00,WeatherDisplay:10.37,2013-02-20 20:20:00,
2013-02-20 15:30:00,51.8,4.0,30.00,West,267,6.0,13.0,14,0.00,CLR,,0.00,WeatherDisplay:10.37,2013-02-20 20:30:00,
2013-02-20 15:40:00,51.9,5.6,30.00,West,264,3.0,14.0,15,0.00,CLR,,0.00,WeatherDisplay:10.37,2013-02-20 20:40:00,
2013-02-20 15:50:00,53.0,6.5,30.00,West,278,3.0,9.0,15,0.00,CLR,,0.00,WeatherDisplay:10.37,2013-02-20 20:50:00,
2013-02-20 16:00:00,53.3,3.6,30.00,West,264,5.0,13.0,13,0.00,CLR,,0.00,WeatherDisplay:10.37,2013-02-20 21:00:00,
2013-02-20 16:10:00,53.3,1.9,30.00,West,278,8.0,14.0,12,0.00,CLR,,0.00,WeatherDisplay:10.37,2013-02-20 21:10:00,
2013-02-20 16:20:00,52.7,3.1,30.01,West,263,6.0,13.0,13,0.00,CLR,,0.00,WeatherDisplay:10.37,2013-02-20 21:20:00,
2013-02-20 16:30:00,52.4,2.9,30.01,West,276,5.0,11.0,13,0.00,CLR,,0.00,WeatherDisplay:10.37,2013-02-20 21:30:00,
2013-02-20 16:40:00,52.3,2.8,30.01,WSW,252,5.0,9.0,13,0.00,CLR,,0.00,WeatherDisplay:10.37,2013-02-20 21:40:00,
2013-02-20 16:50:00,52.5,3.0,30.02,West,267,6.0,12.0,13,0.00,CLR,,0.00,WeatherDisplay:10.37,2013-02-20 21:50:00,
2013-02-20 17:00:00,52.2,2.7,30.02,West,264,5.0,12.0,13,0.00,CLR,,0.00,WeatherDisplay:10.37,2013-02-20 22:00:00,
2013-02-20 17:10:00,52.0,4.2,30.02,West,264,3.0,12.0,14,0.00,CLR,,0.00,WeatherDisplay:10.37,2013-02-20 22:10:00,
2013-02-20 17:20:00,51.6,5.4,30.04,WNW,287,1.0,9.0,15,0.00,CLR,,0.00,WeatherDisplay:10.37,2013-02-20 22:20:00,
2013-02-20 17:30:00,51.0,7.6,30.04,WNW,302,0.0,6.0,17,0.00,CLR,,0.00,WeatherDisplay:10.37,2013-02-20 22:30:00,
2013-02-20 17:40:00,50.8,7.5,30.04,NW,306,0.0,1.0,17,0.00,CLR,,0.00,WeatherDisplay:10.37,2013-02-20 22:40:00,
2013-02-20 17:50:00,50.5,7.2,30.04,NW,307,0.0,4.0,17,0.00,CLR,,0.00,WeatherDisplay:10.37,2013-02-20 22:50:00,
2013-02-20 18:00:00,50.1,6.9,30.04,NW,307,0.0,3.0,17,0.00,CLR,,0.00,WeatherDisplay:10.37,2013-02-20 23:00:00,
2013-02-20 18:10:00,49.6,7.7,30.06,NW,307,0.0,3.0,18,0.00,CLR,,0.00,WeatherDisplay:10.37,2013-02-20 23:10:00,
2013-02-20 18:20:00,49.1,6.1,30.07,NW,307,0.0,0.0,17,0.00,CLR,,0.00,WeatherDisplay:10.37,2013-02-20 23:20:00,
2013-02-20 18:30:00,48.5,8.0,30.07,NW,307,0.0,0.0,19,0.00,CLR,,0.00,WeatherDisplay:10.37,2013-02-20 23:30:00,
2013-02-20 18:40:00,47.9,7.5,30.07,NW,307,1.0,3.0,19,0.00,CLR,,0.00,WeatherDisplay:10.37,2013-02-20 23:40:00,
2013-02-20 18:50:00,47.3,7.0,30.09,NW,309,1.0,5.0,19,0.00,CLR,,0.00,WeatherDisplay:10.37,2013-02-20 23:50:00,
2013-02-20 19:00:00,46.7,6.6,30.09,NW,309,0.0,4.0,19,0.00,CLR,,0.00,WeatherDisplay:10.37,2013-02-21 00:00:00,
2013-02-20 19:10:00,46.2,6.2,30.09,NW,309,0.0,2.0,19,0.00,CLR,,0.00,WeatherDisplay:10.37,2013-02-21 00:10:00,
2013-02-20 19:20:00,45.8,5.8,30.09,NW,309,0.0,5.0,19,0.00,CLR,,0.00,WeatherDisplay:10.37,2013-02-21 00:20:00,
2013-02-20 19:30:00,45.4,5.5,30.09,NW,310,1.0,6.0,19,0.00,CLR,,0.00,WeatherDisplay:10.37,2013-02-21 00:30:00,
2013-02-20 19:40:00,44.8,6.1,30.09,NW,311,0.0,4.0,20,0.00,CLR,,0.00,WeatherDisplay:10.37,2013-02-21 00:40:00,
2013-02-20 19:50:00,44.4,5.7,30.10,NW,311,0.0,3.0,20,0.00,CLR,,0.00,WeatherDisplay:10.37,2013-02-21 00:50:00,
2013-02-20 20:00:00,43.9,5.4,30.10,NW,311,0.0,3.0,20,0.00,CLR,,0.00,WeatherDisplay:10.37,2013-02-21 01:00:00,
2013-02-20 20:10:00,43.5,6.1,30.10,NW,311,0.0,2.0,21,0.00,CLR,,0.00,WeatherDisplay:10.37,2013-02-21 01:10:00,
2013-02-20 20:20:00,42.9,5.6,30.10,NW,311,0.0,0.0,21,0.00,CLR,,0.00,WeatherDisplay:10.37,2013-02-21 01:20:00,
2013-02-20 20:30:00,42.4,6.2,30.10,NW,314,1.0,5.0,22,0.00,CLR,,0.00,WeatherDisplay:10.37,2013-02-21 01:30:00,
2013-02-20 20:40:00,42.2,6.0,30.11,NW,323,0.0,5.0,22,0.00,CLR,,0.00,WeatherDisplay:10.37,2013-02-21 01:40:00,
2013-02-20 20:50:00,41.9,6.7,30.12,NW,323,0.0,5.0,23,0.00,CLR,,0.00,WeatherDisplay:10.37,2013-02-21 01:50:00,
2013-02-20 21:00:00,41.6,6.5,30.12,NNW,328,1.0,7.0,23,0.00,CLR,,0.00,WeatherDisplay:10.37,2013-02-21 02:00:00,
2013-02-20 21:10:00,41.2,6.1,30.12,NNW,329,0.0,7.0,23,0.00,CLR,,0.00,WeatherDisplay:10.37,2013-02-21 02:10:00,
2013-02-20 21:20:00,41.1,6.0,30.13,North,351,1.0,10.0,23,0.00,CLR,,0.00,WeatherDisplay:10.37,2013-02-21 02:20:00,
2013-02-20 21:30:00,40.9,5.9,30.13,North,353,0.0,8.0,23,0.00,CLR,,0.00,WeatherDisplay:10.37,2013-02-21 02:30:00,
2013-02-20 21:40:00,40.6,5.6,30.12,NNW,338,1.0,9.0,23,0.00,CLR,,0.00,WeatherDisplay:10.37,2013-02-21 02:40:00,
2013-02-20 21:50:00,40.4,6.4,30.13,North,355,0.0,5.0,24,0.00,CLR,,0.00,WeatherDisplay:10.37,2013-02-21 02:50:00,
2013-02-20 22:00:00,40.2,6.2,30.13,North,355,0.0,3.0,24,0.00,CLR,,0.00,WeatherDisplay:10.37,2013-02-21 03:00:00,
2013-02-20 22:10:00,39.9,6.9,30.14,North,355,0.0,3.0,25,0.00,CLR,,0.00,WeatherDisplay:10.37,2013-02-21 03:10:00,
2013-02-20 22:20:00,39.6,6.6,30.13,North,355,0.0,2.0,25,0.00,CLR,,0.00,WeatherDisplay:10.37,2013-02-21 03:20:00,
2013-02-20 22:30:00,39.3,6.3,30.13,North,355,0.0,3.0,25,0.00,CLR,,0.00,WeatherDisplay:10.37,2013-02-21 03:30:00,
2013-02-20 22:40:00,39.1,7.0,30.13,North,355,0.0,2.0,26,0.00,CLR,,0.00,WeatherDisplay:10.37,2013-02-21 03:40:00,
2013-02-20 22:50:00,38.8,6.8,30.13,North,355,1.0,4.0,26,0.00,CLR,,0.00,WeatherDisplay:10.37,2013-02-21 03:50:00,
2013-02-20 23:00:00,38.5,7.4,30.13,North,3,0.0,9.0,27,0.00,CLR,,0.00,WeatherDisplay:10.37,2013-02-21 04:00:00,
2013-02-20 23:10:00,38.3,8.0,30.13,North,4,0.0,5.0,28,0.00,CLR,,0.00,WeatherDisplay:10.37,2013-02-21 04:10:00,
2013-02-20 23:20:00,37.9,7.7,30.13,North,5,0.0,5.0,28,0.00,CLR,,0.00,WeatherDisplay:10.37,2013-02-21 04:20:00,
2013-02-20 23:30:00,37.7,7.5,30.13,North,5,1.0,4.0,28,0.00,CLR,,0.00,WeatherDisplay:10.37,2013-02-21 04:30:00,
2013-02-20 23:40:00,37.2,7.8,30.13,North,5,1.0,4.0,29,0.00,CLR,,0.00,WeatherDisplay:10.37,2013-02-21 04:40:00,
2013-02-20 23:50:00,36.8,8.2,30.13,North,5,0.0,4.0,30,0.00,CLR,,0.00,WeatherDisplay:10.37,2013-02-21 04:50:00,